| time (UTC) | temp F | wind direction | speed knots | gust knots | rain 1hr in | rain 24hr in | rain mn in | humidity % | barometer mb |
| 20260506154916 | 51 | 0 | 0.0 | 2.6 | 0.00 | 0.72 | 0.00 | 83 | 1004.7 |
| 20260506153916 | 51 | 0 | 0.0 | 3.5 | 0.00 | 0.72 | 0.00 | 84 | 1004.7 |
| 20260506152916 | 51 | 0 | 0.0 | 2.6 | 0.00 | 0.72 | 0.00 | 83 | 1004.9 |
| 20260506151916 | 51 | 0 | 0.0 | 2.6 | 0.00 | 0.72 | 0.00 | 83 | 1004.7 |
| 20260506150916 | 51 | 0 | 0.0 | 2.6 | 0.00 | 0.72 | 0.00 | 83 | 1004.7 |
| 20260506145916 | 51 | 0 | 0.0 | 2.6 | 0.00 | 0.72 | 0.00 | 83 | 1004.7 |
| 20260506144916 | 51 | 0 | 0.0 | 5.2 | 0.00 | 0.72 | 0.00 | 83 | 1004.6 |
| 20260506143916 | 52 | 0 | 0.0 | 2.6 | 0.00 | 0.72 | 0.00 | 82 | 1004.6 |
| 20260506142916 | 52 | 0 | 0.0 | 2.6 | 0.00 | 0.72 | 0.00 | 82 | 1004.6 |
| 20260506141916 | 52 | 0 | 0.0 | 2.6 | 0.00 | 0.72 | 0.00 | 82 | 1004.6 |
| 20260506140916 | 52 | 0 | 0.0 | 3.5 | 0.00 | 0.72 | 0.00 | 82 | 1004.6 |
| 20260506135916 | 52 | 0 | 0.0 | 5.2 | 0.00 | 0.72 | 0.00 | 82 | 1004.5 |
| 20260506134916 | 51 | 54 | 0.9 | 5.2 | 0.00 | 0.72 | 0.00 | 82 | 1004.5 |
| 20260506133917 | 51 | 44 | 2.6 | 7.0 | 0.00 | 0.72 | 0.00 | 82 | 1004.5 |
| 20260506132916 | 52 | 0 | 0.0 | 3.5 | 0.00 | 0.72 | 0.00 | 82 | 1004.5 |
| 20260506131916 | 51 | 0 | 0.0 | 5.2 | 0.00 | 0.72 | 0.00 | 82 | 1004.5 |
| 20260506130916 | 52 | 0 | 0.0 | 7.0 | 0.00 | 0.72 | 0.00 | 82 | 1004.4 |
| 20260506125916 | 52 | 0 | 0.0 | 3.5 | 0.00 | 0.72 | 0.00 | 81 | 1004.4 |
| 20260506124916 | 51 | 0 | 0.0 | 3.5 | 0.00 | 0.73 | 0.00 | 81 | 1004.4 |
| 20260506123916 | 52 | 0 | 0.0 | 0.9 | 0.00 | 0.73 | 0.00 | 81 | 1004.2 |
| 20260506122916 | 51 | 0 | 0.0 | 7.0 | 0.00 | 0.78 | 0.00 | 81 | 1004.2 |
| 20260506121916 | 51 | 0 | 0.0 | 3.5 | 0.00 | 0.78 | 0.00 | 81 | 1004.2 |
| 20260506120916 | 51 | 0 | 0.0 | 7.0 | 0.00 | 0.78 | 0.00 | 81 | 1004.1 |
| 20260506115916 | 51 | 0 | 0.0 | 3.5 | 0.00 | 0.78 | 0.00 | 82 | 1004.0 |
| 20260506114916 | 51 | 53 | 3.5 | 7.8 | 0.00 | 0.78 | 0.00 | 81 | 1004.1 |
| 20260506113916 | 51 | 53 | 0.9 | 7.0 | 0.00 | 0.78 | 0.00 | 81 | 1004.0 |
| 20260506112916 | 51 | 87 | 0.9 | 7.8 | 0.00 | 0.78 | 0.00 | 82 | 1004.0 |
| 20260506111916 | 51 | 51 | 0.9 | 12.2 | 0.00 | 0.78 | 0.00 | 81 | 1003.9 |
| 20260506110916 | 51 | 53 | 3.5 | 7.8 | 0.00 | 0.78 | 0.00 | 81 | 1003.7 |
| 20260506105916 | 51 | 71 | 0.9 | 7.0 | 0.00 | 0.78 | 0.00 | 81 | 1003.7 |
| 20260506104916 | 51 | 23 | 0.9 | 9.6 | 0.00 | 0.78 | 0.00 | 81 | 1003.9 |
| 20260506103916 | 51 | 0 | 0.0 | 7.8 | 0.00 | 0.78 | 0.00 | 81 | 1004.0 |
| 20260506102916 | 51 | 55 | 0.9 | 7.8 | 0.00 | 0.78 | 0.00 | 81 | 1003.9 |
| 20260506101916 | 51 | 0 | 0.0 | 5.2 | 0.00 | 0.78 | 0.00 | 81 | 1003.7 |
| 20260506100916 | 51 | 36 | 0.9 | 10.4 | 0.00 | 0.78 | 0.00 | 81 | 1003.7 |
| 20260506095916 | 51 | 0 | 0.0 | 9.6 | 0.00 | 0.78 | 0.00 | 81 | 1003.6 |
| 20260506094916 | 51 | 78 | 0.9 | 7.0 | 0.00 | 0.78 | 0.00 | 81 | 1003.5 |
| 20260506093916 | 51 | 48 | 0.9 | 5.2 | 0.00 | 0.78 | 0.00 | 81 | 1003.5 |
| 20260506092916 | 51 | 0 | 0.0 | 5.2 | 0.00 | 0.78 | 0.00 | 81 | 1003.5 |
| 20260506091916 | 51 | 0 | 0.0 | 9.6 | 0.00 | 0.78 | 0.00 | 81 | 1003.4 |
| 20260506090916 | 51 | 67 | 0.9 | 7.0 | 0.00 | 0.78 | 0.00 | 81 | 1003.4 |
| 20260506085916 | 51 | 61 | 0.9 | 9.6 | 0.00 | 0.78 | 0.00 | 81 | 1003.2 |
| 20260506084916 | 51 | 0 | 0.0 | 5.2 | 0.00 | 0.78 | 0.00 | 80 | 1003.2 |
| 20260506083916 | 51 | 0 | 0.0 | 5.2 | 0.00 | 0.77 | 0.00 | 81 | 1003.2 |
| 20260506082916 | 50 | 0 | 0.0 | 5.2 | 0.00 | 0.77 | 0.00 | 81 | 1003.2 |
| 20260506081916 | 50 | 0 | 0.0 | 7.0 | 0.00 | 0.76 | 0.00 | 81 | 1003.2 |
| 20260506080916 | 51 | 0 | 0.0 | 3.5 | 0.00 | 0.76 | 0.00 | 81 | 1003.1 |
| 20260506072916 | 51 | 0 | 0.0 | 5.2 | 0.02 | 0.76 | 0.00 | 81 | 1002.9 |
| 20260506071916 | 51 | 0 | 0.0 | 5.2 | 0.02 | 0.76 | 0.00 | 81 | 1003.0 |
| 20260506070916 | 51 | 0 | 0.0 | 2.6 | 0.02 | 0.75 | 0.00 | 80 | 1002.9 |
| 20260506061916 | 51 | 0 | 0.0 | 2.6 | 0.02 | 0.73 | 0.00 | 81 | 1002.9 |
| 20260506060916 | 51 | 69 | 0.9 | 5.2 | 0.02 | 0.71 | 0.00 | 81 | 1002.9 |
| 20260506050916 | 51 | 0 | 0.0 | 5.2 | 0.00 | 0.69 | 0.00 | 81 | 1002.9 |
| 20260506044916 | 51 | 0 | 0.0 | 2.6 | 0.02 | 0.69 | 0.00 | 81 | 1002.7 |
| 20260506043916 | 51 | 0 | 0.0 | 2.6 | 0.04 | 0.69 | 0.00 | 81 | 1002.7 |
| 20260506042916 | 51 | 0 | 0.0 | 0.9 | 0.05 | 0.69 | 0.00 | 81 | 1002.7 |
| 20260506041916 | 51 | 0 | 0.0 | 2.6 | 0.07 | 0.68 | 0.00 | 81 | 1002.7 |
| 20260506040916 | 51 | 0 | 0.0 | 0.0 | 0.07 | 0.67 | 0.00 | 82 | 1002.9 |
| 20260506035916 | 51 | 0 | 0.0 | 0.0 | 0.07 | 0.65 | 0.00 | 82 | 1002.9 |
| 20260506034916 | 51 | 0 | 0.0 | 2.6 | 0.07 | 0.65 | 0.00 | 83 | 1003.0 |
| 20260506033916 | 51 | 0 | 0.0 | 0.0 | 0.07 | 0.63 | 0.00 | 83 | 1003.1 |
| 20260506032916 | 51 | 0 | 0.0 | 3.5 | 0.08 | 0.63 | 0.00 | 84 | 1003.2 |
| 20260506031916 | 51 | 0 | 0.0 | 5.2 | 0.09 | 0.62 | 0.00 | 84 | 1003.1 |
| 20260506030916 | 51 | 0 | 0.0 | 3.5 | 0.08 | 0.61 | 0.00 | 84 | 1003.2 |
| 20260506025916 | 51 | 0 | 0.0 | 3.5 | 0.10 | 0.59 | 0.00 | 84 | 1003.4 |
| 20260506024916 | 52 | 0 | 0.0 | 3.5 | 0.09 | 0.57 | 0.00 | 84 | 1003.6 |
| 20260506023916 | 52 | 0 | 0.0 | 2.6 | 0.09 | 0.56 | 0.00 | 85 | 1003.7 |
| 20260506022916 | 52 | 0 | 0.0 | 2.6 | 0.09 | 0.55 | 0.00 | 85 | 1003.7 |
| 20260506021916 | 52 | 0 | 0.0 | 2.6 | 0.08 | 0.51 | 0.00 | 85 | 1003.7 |
| 20260506020916 | 52 | 59 | 0.9 | 3.5 | 0.09 | 0.50 | 0.00 | 85 | 1003.9 |
| 20260506015916 | 52 | 0 | 0.0 | 0.9 | 0.08 | 0.48 | 0.00 | 85 | 1003.9 |
| 20260506014916 | 52 | 0 | 0.0 | 0.9 | 0.08 | 0.47 | 0.00 | 85 | 1004.0 |
| 20260506013916 | 52 | 0 | 0.0 | 3.5 | 0.08 | 0.45 | 0.00 | 85 | 1004.1 |
| 20260506012916 | 52 | 0 | 0.0 | 3.5 | 0.08 | 0.43 | 0.00 | 85 | 1004.1 |
| 20260506011916 | 52 | 0 | 0.0 | 5.2 | 0.07 | 0.42 | 0.00 | 85 | 1004.1 |
| 20260506010916 | 52 | 0 | 0.0 | 3.5 | 0.07 | 0.40 | 0.00 | 85 | 1004.2 |
| 20260506005916 | 52 | 0 | 0.0 | 0.9 | 0.07 | 0.39 | 0.00 | 85 | 1004.2 |
| 20260506004916 | 52 | 0 | 0.0 | 2.6 | 0.07 | 0.38 | 0.00 | 86 | 1004.2 |
| 20260506003916 | 52 | 80 | 0.9 | 5.2 | 0.07 | 0.36 | 0.00 | 86 | 1004.2 |
| 20260506002916 | 52 | 0 | 0.0 | 5.2 | 0.07 | 0.35 | 0.00 | 86 | 1004.4 |
| 20260506001916 | 52 | 0 | 0.0 | 2.6 | 0.07 | 0.34 | 0.00 | 86 | 1004.5 |
| 20260506000916 | 52 | 0 | 0.0 | 2.6 | 0.07 | 0.33 | 0.00 | 86 | 1004.6 |
| 20260505235916 | 52 | 0 | 0.0 | 2.6 | 0.07 | 0.32 | 0.00 | 86 | 1004.6 |
| 20260505234916 | 52 | 0 | 0.0 | 5.2 | 0.07 | 0.31 | 0.00 | 86 | 1004.7 |
| 20260505233916 | 52 | 0 | 0.0 | 2.6 | 0.07 | 0.29 | 0.00 | 86 | 1004.7 |
| 20260505232916 | 53 | 0 | 0.0 | 2.6 | 0.05 | 0.28 | 0.00 | 86 | 1004.7 |
| 20260505231916 | 53 | 0 | 0.0 | 3.5 | 0.05 | 0.28 | 0.00 | 86 | 1004.9 |
| 20260505230916 | 53 | 0 | 0.0 | 3.5 | 0.04 | 0.25 | 0.00 | 86 | 1004.9 |
| 20260505225916 | 53 | 0 | 0.0 | 2.6 | 0.03 | 0.24 | 0.00 | 86 | 1005.0 |
| 20260505224916 | 53 | 0 | 0.0 | 3.5 | 0.03 | 0.23 | 0.00 | 85 | 1005.0 |
| 20260505223916 | 53 | 0 | 0.0 | 2.6 | 0.03 | 0.22 | 0.00 | 85 | 1005.0 |
| 20260505222916 | 53 | 0 | 0.0 | 2.6 | 0.02 | 0.21 | 0.00 | 85 | 1005.0 |
| 20260505221916 | 53 | 67 | 0.9 | 3.5 | 0.02 | 0.21 | 0.00 | 85 | 1005.1 |
| 20260505220916 | 53 | 0 | 0.0 | 2.6 | 0.03 | 0.21 | 0.00 | 86 | 1005.1 |
| 20260505215916 | 53 | 0 | 0.0 | 5.2 | 0.04 | 0.20 | 0.00 | 86 | 1005.2 |
| 20260505214916 | 53 | 60 | 0.9 | 5.2 | 0.05 | 0.19 | 0.00 | 86 | 1005.2 |
| 20260505213916 | 54 | 0 | 0.0 | 9.6 | 0.04 | 0.18 | 0.00 | 85 | 1005.2 |
| 20260505212916 | 54 | 64 | 0.9 | 7.0 | 0.05 | 0.18 | 0.00 | 85 | 1005.4 |
| 20260505211916 | 54 | 67 | 0.9 | 3.5 | 0.05 | 0.18 | 0.00 | 85 | 1005.4 |
| 20260505210916 | 54 | 80 | 0.9 | 7.0 | 0.04 | 0.17 | 0.00 | 86 | 1005.4 |
| 20260505205916 | 54 | 0 | 0.0 | 5.2 | 0.03 | 0.15 | 0.00 | 86 | 1005.5 |
| 20260505204916 | 54 | 0 | 0.0 | 5.2 | 0.02 | 0.14 | 0.00 | 86 | 1005.6 |
| 20260505203916 | 54 | 0 | 0.0 | 7.0 | 0.03 | 0.14 | 0.00 | 86 | 1005.6 |
| 20260505202916 | 54 | 0 | 0.0 | 9.6 | 0.02 | 0.14 | 0.00 | 86 | 1005.6 |
| 20260505201916 | 55 | 0 | 0.0 | 7.8 | 0.02 | 0.12 | 0.00 | 86 | 1005.6 |
| 20260505200916 | 55 | 65 | 0.9 | 7.8 | 0.01 | 0.12 | 0.00 | 86 | 1005.6 |
| 20260505195916 | 55 | 26 | 0.9 | 5.2 | 0.00 | 0.11 | 0.00 | 86 | 1005.5 |
| 20260505194916 | 55 | 0 | 0.0 | 7.8 | 0.00 | 0.10 | 0.00 | 86 | 1005.5 |
| 20260505193916 | 55 | 0 | 0.0 | 3.5 | 0.00 | 0.10 | 0.00 | 86 | 1005.5 |
| 20260505192916 | 55 | 56 | 0.9 | 5.2 | 0.00 | 0.10 | 0.00 | 86 | 1005.5 |
| 20260505191916 | 55 | 0 | 0.0 | 7.0 | 0.00 | 0.10 | 0.00 | 86 | 1005.5 |
| 20260505190916 | 55 | 0 | 0.0 | 3.5 | 0.00 | 0.11 | 0.00 | 86 | 1005.5 |
| 20260505185916 | 55 | 42 | 0.9 | 7.0 | 0.00 | 0.14 | 0.00 | 87 | 1005.5 |
| 20260505184916 | 55 | 0 | 0.0 | 7.8 | 0.00 | 0.17 | 0.00 | 87 | 1005.6 |
| 20260505183916 | 55 | 0 | 0.0 | 7.8 | 0.00 | 0.19 | 0.00 | 87 | 1005.5 |
| 20260505182916 | 56 | 0 | 0.0 | 3.5 | 0.00 | 0.19 | 0.00 | 87 | 1005.6 |
| 20260505181916 | 56 | 0 | 0.0 | 5.2 | 0.00 | 0.20 | 0.00 | 87 | 1005.6 |
| 20260505180916 | 56 | 66 | 2.6 | 7.8 | 0.00 | 0.20 | 0.00 | 87 | 1005.7 |
| 20260505175916 | 56 | 48 | 0.9 | 7.0 | 0.00 | 0.20 | 0.00 | 86 | 1005.7 |
| 20260505174916 | 56 | 35 | 0.9 | 7.0 | 0.00 | 0.21 | 0.00 | 86 | 1005.7 |
| 20260505173916 | 57 | 0 | 0.0 | 7.0 | 0.00 | 0.21 | 0.00 | 86 | 1005.7 |
| 20260505172916 | 57 | 0 | 0.0 | 3.5 | 0.00 | 0.21 | 0.00 | 86 | 1005.7 |
| 20260505171916 | 57 | 0 | 0.0 | 3.5 | 0.00 | 0.21 | 0.00 | 86 | 1005.7 |
| 20260505170916 | 57 | 0 | 0.0 | 5.2 | 0.00 | 0.21 | 0.00 | 86 | 1005.7 |
| 20260505165916 | 57 | 35 | 2.6 | 7.0 | 0.00 | 0.21 | 0.00 | 86 | 1005.7 |
| 20260505164916 | 57 | 38 | 2.6 | 9.6 | 0.00 | 0.21 | 0.00 | 86 | 1005.9 |
| 20260505163916 | 57 | 61 | 0.9 | 7.0 | 0.00 | 0.21 | 0.00 | 86 | 1006.0 |
| 20260505162916 | 57 | 66 | 2.6 | 7.0 | 0.00 | 0.21 | 0.00 | 86 | 1006.1 |
| 20260505161916 | 58 | 52 | 2.6 | 7.8 | 0.00 | 0.22 | 0.00 | 86 | 1006.1 |
| 20260505160916 | 58 | 60 | 0.9 | 7.0 | 0.00 | 0.22 | 0.00 | 86 | 1006.0 |